SCP
0 0 0 0 0 0 0 0 0 0 0 0 0 0 0 0 0 0 0 0 0 0 0 0 0 0 0 0 0 0 0 0 0 0 0 0 0 0 0 0 0 0 0 0 0 0 0 0 0
0 0 0 0 0 0 0 0 0 0 0 0 0 0 0 0 0 0 0 0 0 0 0 0 0 0 0 0 0 0 0 0 0 0 0 0 0 0 0 0 0 0 0 0 0 0 0 0 0
0 0 0 0 0 0 0 0 0 0 0 0 0 0 0 0 0 0 0 0 0 0 0 0 0 0 0 0 0 0 0 0 0 0 0 0 0 0 0 0 0 0 0 0 0 0 0 0 0
0 0 0 0 0 0 0 0 0 0 0 0 0 0 0 0 0 0 0 0 0 0 0 0 0 0 0 0 0 0 0 0 0 0 0 0 0 0 0 0 0 0 0 0 0 0 0 0 0
0 0 0 0 0 0 0 0 0 0 0 0 0 0 0 0 0 0 0 0 0 0 0 0 0 0 0 0 0 0 0 0 0 0 0 0 0 0 0 0 0 0 0 0 0 0 0 0 0
0 0 0 0 0 0 0 0 0 0 0 0 0 0 0 0 0 0 0 0 0 0 0 0 0 0 0 0 0 0 0 0 0 0 0 0 0 0 0 0 0 0 0 0 0 0 0 0 0
0 0 0 0 0 0 0 0 0 0 0 0 0 0 0 0 0 0 0 0 0 0 0 0 0 0 0 0 0 0 0 0 0 0 0 0 0 0 0 0 0 0 0 0 0 0 0 0 0
0 0 0 0 0 0 0 0 0 0 0 0 0 0 0 0 0 0 0 0 0 0 0 0 0 0 0 0 0 0 0 0 0 0 0 0 0 0 0 0 0 0 0 0 0 0 0 0 0
0 0 0 0 0 0 0 0 0 0 0 0 0 0 0 0 0 0 0 0 0 0 0 0 0 0 0 0 0 0 0 0 0 0 0 0 0 0 0 0 0 0 0 0 0 0 0 0 0
0 0 0 0 0 0 0 0 0 0 0 0 0 0 0 0 0 0 0 0 0 0 0 0 0 0 0 0 0 0 0 0 0 0 0 0 0 0 0 0 0 0 0 0 0 0 0 0 0
0 0 0 0 0 0 0 0 0 0 0 0 0 0 0 0 0 0 0 0 0 0 0 0 0 0 0 0 0 0 0 0 0 0 0 0 0 0 0 0 0 0 0 0 0 0 0 0 0
0 0 0 0 0 0 0 0 0 0 0 0 0 0 0 0 0 0 0 0 0 0 0 0 0 0 0 0 0 0 0 0 0 0 0 0 0 0 0 0 0 0 0 0 0 0 0 0 0
0 0 0 0 0 0 0 0 0 0 0 0 0 0 0 0 0 0 0 0 0 0 0 0 0 0 0 0 0 0 0 0 0 0 0 0 0 0 0 0 0 0 0 0 0 0 0 0 0
0 0 0 0 0 0 0 0 0 0 0 0 0 0 0 0 0 0 0 0 0 0 0 0 0 0 0 0 0 0 0 0 0 0 0 0 0 0 0 0 0 0 0 0 0 0 0 0 0
0 0 0 0 0 0 0 0 0 0 0 0 0 0 0 0 0 0 0 0 0 0 0 0 0 0 0 0 0 0 0 0 0 0 0 0 0 0 0 0 0 0 0 0 0 0 0 0 0
0 0 0 0 0 0 0 0 0 0 0 0 0 0 0 0 0 0 0 0 0 0 0 0 0 0 0 0 0 0 0 0 0 0 0 0 0 0 0 0 0 0 0 0 0 0 0 0 0
0 0 0 0 0 0 0 0 0 0 0 0 0 0 0 0 0 0 0 0 0 0 0 0 0 0 0 0 0 0 0 0 0 0 0 0 0 0 0 0 0 0 0 0 0 0 0 0 0
0 0 0 0 0 0 0 0 0 0 0 0 0 0 0 0 0 0 0 0 0 0 0 0 0 0 0 0 0 0 0 0 0 0 0 0 0 0 0 0 0 0 0 0 0 0 0 0 0
0 0 0 0 0 0 0 0 0 0 0 0 0 0 0 0 0 0 0 0 0 0 0 0 0 0 0 0 0 0 0 0 0 0 0 0 0 0 0 0 0 0 0 0 0 0 0 0 0
0 0 0 0 0 0 0 0 0 0 0 0 0 0 0 0 0 0 0 0 0 0 0 0 0 0 0 0 0 0 0 0 0 0 0 0 0 0 0 0 0 0 0 0 0 0 0 0 0
0 0 0 0 0 0 0 0 0 0 0 0 0 0 0 0 0 0 0 0 0 0 0 0 0 0 0 0 0 0 0 0 0 0 0 0 0 0 0 0 0 0 0 0 0 0 0 0 0
0 0 0 0 0 0 0 0 0 0 0 0 0 0 0 0 0 0 0 0 0 0 0 0 0 0 0 0 0 0 0 0 0 0 0 0 0 0 0 0 0 0 0 0 0 0 0 0 0
0 0 0 0 0 0 0 0 0 0 0 0 0 0 0 0 0 0 0 0 0 0 0 0 0 0 0 0 0 0 0 0 0 0 0 0 0 0 0 0 0 0 0 0 0 0 0 0 0
0 0 0 0 0 0 0 0 0 0 0 0 0 0 0 0 0 0 0 0 0 0 0 0 0 0 0 0 0 0 0 0 0 0 0 0 0 0 0 0 0 0 0 0 0 0 0 0 0
0 0 0 0 0 0 0 0 0 0 0 0 0 0 0 0 0 0 0 0 0 0 0 0 0 0 0 0 0 0 0 0 0 0 0 0 0 0 0 0 0 0 0 0 0 0 0 0 0
0 0 0 0 0 0 0 0 0 0 0 0 0 0 0 0 0 0 0 0 0 0 0 0 0 0 0 0 0 0 0 0 0 0 0 0 0 0 0 0 0 0 0 0 0 0 0 0 0
0 0 0 0 0 0 0 0 0 0 0 0 0 0 0 0 0 0 0 0 0 0 0 0 0 0 0 0 0 0 0 0 0 0 0 0 0 0 0 0 0 0 0 0 0 0 0 0 0
0 0 0 0 0 0 0 0 0 0 0 0 0 0 0 0 0 0 0 0 0 0 0 0 0 0 0 0 0 0 0 0 0 0 0 0 0 0 0 0 0 0 0 0 0 0 0 0 0
0 0 0 0 0 0 0 0 0 0 0 0 0 0 0 0 0 0 0 0 0 0 0 0 0 0 0 0 0 0 0 0 0 0 0 0 0 0 0 0 0 0 0 0 0 0 0 0 0
0 0 0 0 0 0 0 0 0 0 0 0 0 0 0 0 0 0 0 0 0 0 0 0 0 0 0 0 0 0 0 0 0 0 0 0 0 0 0 0 0 0 0 0 0 0 0 0 0
Wind_Speed
5 3 3 5 7 6 1 2 1 1 1 1 2 5 7 5 4 3 2 5 8 7 6 8 11 13 13 12 12 12 13 14 15 15 16 16 16 16 16 16 16 17 17 17 17 18 18 18 18
2 2 5 6 6 2 3 3 2 2 4 4 3 4 4 2 2 6 5 6 8 8 7 8 11 12 13 12 12 12 13 14 15 15 15 16 16 16 16 15 15 16 17 17 17 17 17 17 17
2 5 5 6 4 4 3 3 4 2 4 2 3 3 3 3 4 5 5 9 8 7 6 8 11 12 13 12 12 12 13 13 14 14 15 15 15 15 15 15 15 15 16 16 16 16 16 16 16
3 5 6 5 2 4 4 3 4 5 3 2 4 4 2 0 6 5 9 9 9 7 6 8 11 12 12 12 13 13 13 13 14 14 14 15 15 15 14 14 14 14 15 15 15 15 15 15 15
4 4 4 2 2 3 3 2 5 4 4 2 4 5 2 3 5 10 10 9 10 7 6 7 11 11 11 12 13 12 13 13 13 13 14 14 14 14 14 13 13 14 14 14 14 14 14 14 13
4 4 4 2 3 3 2 4 4 3 3 3 5 5 1 1 7 10 9 8 8 8 6 6 9 10 10 10 11 11 12 13 13 13 13 13 13 13 13 13 13 13 13 13 13 13 13 12 12
4 4 4 4 2 3 2 5 5 5 4 6 6 6 2 4 5 9 8 8 7 7 6 5 6 7 9 9 10 10 11 11 11 12 12 11 12 12 11 11 11 12 11 11 12 12 12 12 11
3 5 3 3 3 4 2 4 4 6 4 3 4 8 7 7 8 9 9 9 8 6 6 5 5 5 5 6 9 10 10 11 11 11 11 11 10 10 9 8 9 10 10 10 10 11 11 11 11
3 4 4 5 6 4 2 3 2 3 5 2 1 3 4 13 13 12 10 8 9 8 6 6 5 5 5 5 7 8 9 10 10 9 10 8 5 5 5 6 8 9 9 9 9 9 9 9 9
3 4 7 4 5 3 3 5 6 5 3 2 0 2 8 14 15 15 13 13 12 11 9 7 6 6 5 5 4 4 4 5 5 4 5 4 4 4 4 6 7 7 7 7 7 8 7 6 3
3 5 4 2 2 2 3 3 5 9 5 8 9 10 14 16 15 14 14 12 12 11 10 9 7 6 6 5 4 3 2 3 4 4 4 4 3 3 3 2 3 3 4 3 4 4 3 3 2
2 3 2 2 1 1 3 4 4 8 8 7 10 16 19 20 18 16 15 12 9 10 11 10 8 7 6 5 4 4 3 3 3 3 4 4 3 2 2 1 2 1 1 2 2 2 2 3 3
2 2 2 2 2 2 3 4 5 7 3 3 9 14 18 19 16 12 10 10 9 11 11 11 10 9 7 6 4 4 4 4 4 3 4 4 3 3 2 2 1 1 1 1 1 1 2 2 2
3 2 3 3 3 1 3 3 3 7 3 6 11 15 16 17 15 11 10 11 10 11 11 10 11 10 8 7 6 5 4 4 4 4 4 5 3 3 3 2 2 1 1 1 0 1 1 2 2
2 1 4 4 2 2 1 4 7 4 6 8 10 13 13 12 11 13 13 12 11 10 10 10 11 10 9 8 7 5 5 4 4 4 5 5 4 4 3 3 2 2 2 1 0 1 1 2 2
3 1 4 4 3 2 5 9 9 4 8 9 9 10 11 11 12 11 11 10 10 9 10 10 9 10 10 8 7 5 5 5 4 4 4 5 5 5 4 3 3 2 2 1 1 1 1 2 2
4 6 7 5 4 3 6 8 7 5 8 9 10 10 11 11 11 10 10 10 10 11 11 11 10 11 10 9 6 6 5 5 5 4 4 5 6 6 4 4 3 3 2 2 1 1 1 2 3
9 6 6 8 4 5 6 8 8 3 7 9 9 10 10 13 16 11 10 10 10 10 10 11 11 11 9 7 5 4 4 4 4 5 5 6 5 6 5 4 4 4 3 2 2 2 2 2 2
8 7 7 6 4 5 8 10 11 5 6 8 9 10 12 16 12 8 9 9 9 10 11 12 12 11 9 6 6 6 6 5 4 5 6 7 6 7 6 4 4 4 4 4 3 2 2 1 1
6 7 7 3 1 4 6 10 10 7 8 10 12 13 14 12 9 9 9 11 13 13 14 13 13 12 11 9 7 4 4 4 4 5 6 7 7 7 6 6 5 5 4 4 3 3 2 1 1
8 8 7 3 2 1 2 9 11 9 6 7 8 9 10 13 14 12 12 13 14 15 16 14 15 14 13 10 6 4 3 3 4 5 5 6 7 7 7 7 5 5 4 4 4 4 4 2 1
11 6 4 2 2 3 4 7 10 9 10 11 12 10 12 13 13 12 12 13 15 17 14 14 14 14 13 12 10 10 9 8 7 5 5 6 7 7 7 6 6 5 4 4 4 4 3 3 2
4 7 5 3 1 3 4 6 10 5 12 14 13 14 15 14 14 14 14 15 15 13 13 13 13 13 13 13 14 13 10 7 5 5 6 6 5 5 6 6 5 5 4 4 4 4 4 3 2
8 8 7 4 2 8 10 8 11 9 12 9 11 14 15 14 13 13 11 9 9 9 10 10 12 13 13 15 14 14 13 10 8 7 6 5 3 3 4 5 4 4 4 4 4 4 4 3 2
9 9 5 4 6 10 6 9 14 9 9 11 13 14 14 12 11 11 11 11 11 11 12 12 14 14 14 15 15 15 13 12 12 9 8 7 4 4 5 4 4 4 4 4 4 4 4 3 3
13 11 9 9 8 4 4 12 12 9 6 7 8 8 7 8 9 11 11 11 11 11 12 12 14 14 14 15 14 13 12 9 8 9 8 8 6 5 5 5 5 5 5 5 5 4 4 4 4
13 10 3 3 1 3 8 9 11 7 8 8 9 9 11 10 9 9 8 8 8 9 10 11 12 12 13 13 12 11 11 10 8 8 8 6 6 6 7 7 7 6 6 6 6 5 4 5 4
10 11 6 5 6 6 6 7 8 6 10 10 10 12 13 9 8 7 6 6 6 6 5 6 8 9 9 10 10 8 9 9 9 8 9 8 8 8 8 7 7 7 6 6 6 5 5 6 4
10 11 8 8 5 6 6 10 9 12 12 12 13 11 9 8 8 7 5 4 4 4 5 5 6 6 7 8 8 8 8 8 9 8 9 9 9 9 9 8 8 7 7 6 6 6 6 6 5
8 11 11 10 8 6 4 10 6 7 6 6 8 6 5 6 5 5 5 5 5 5 5 5 5 6 6 7 7 8 8 9 9 9 9 10 10 9 9 9 8 8 7 6 7 7 6 6 6
Wind_Direction
348 17 51 53 52 50 6 268 213 123 81 48 107 127 141 142 160 169 119 134 130 132 133 127 123 121 118 116 114 108 104 102 99 97 96 94 93 91 89 88 88 87 86 84 82 81 81 80 78
350 17 49 57 80 62 281 257 206 183 152 126 75 87 97 97 83 117 130 140 132 130 126 127 126 127 125 121 117 113 109 106 103 102 101 97 95 94 92 91 89 89 88 85 83 81 82 81 80
35 47 75 72 105 174 228 225 189 117 137 126 89 70 112 149 142 147 150 138 124 121 122 130 130 131 130 126 121 117 114 110 108 105 104 100 98 96 95 93 90 89 88 86 84 82 81 81 82
55 45 55 77 169 213 221 222 163 129 122 92 115 95 74 121 162 152 135 130 123 122 125 135 133 134 133 130 126 122 119 114 111 107 106 103 101 98 96 94 92 90 88 87 85 83 81 82 82
57 73 66 61 253 256 242 192 151 148 149 123 120 117 74 3 116 128 132 132 133 128 127 134 134 134 134 134 131 126 121 116 113 110 109 108 106 103 100 98 96 92 90 88 87 85 83 82 83
58 71 100 206 262 284 255 155 142 142 138 142 129 115 89 114 133 137 133 131 134 132 124 126 131 132 131 131 131 126 122 118 116 115 114 113 110 107 105 103 100 96 93 91 90 88 85 83 84
111 112 163 188 227 276 217 151 153 153 161 187 156 120 135 165 151 134 127 127 127 124 120 118 122 125 126 125 124 122 120 119 116 113 110 108 107 105 103 104 104 101 98 94 91 88 84 82 81
123 114 144 184 192 243 198 154 161 156 175 147 142 147 178 176 143 127 129 136 136 131 129 127 120 117 116 117 121 120 117 115 111 106 101 100 100 97 93 95 103 103 100 96 91 86 81 76 75
91 103 187 203 194 231 180 157 134 129 122 143 214 189 184 140 141 140 144 151 155 155 151 143 133 126 123 121 124 120 115 116 112 110 109 100 92 88 86 95 100 103 101 97 91 83 76 68 62
115 173 212 210 198 215 194 183 163 128 132 179 132 72 128 144 156 159 165 169 172 173 170 163 153 145 136 129 120 114 110 115 113 115 112 104 101 95 94 95 98 97 92 88 82 72 63 60 47
152 191 210 236 218 220 203 201 167 142 187 205 190 168 154 162 168 173 176 178 179 177 176 175 167 157 149 141 139 127 119 120 122 127 124 116 104 96 89 85 82 81 76 63 58 53 43 41 34
159 213 214 256 342 221 208 179 184 186 209 213 183 163 163 173 180 183 182 181 177 178 183 180 173 166 162 156 156 149 146 146 148 151 145 134 128 127 126 118 113 95 77 73 53 37 22 18 12
196 239 258 285 304 267 201 200 207 229 252 129 138 158 174 180 186 187 183 178 176 183 185 184 179 177 172 167 169 168 168 168 165 162 164 158 154 160 157 154 149 140 111 98 50 13 360 353 344
211 254 300 301 309 278 206 238 208 242 151 140 154 174 184 187 184 180 181 183 186 187 186 184 185 183 177 179 180 179 177 172 170 176 179 174 167 168 170 175 179 186 180 178 192 298 325 319 318
73 6 314 281 257 256 161 265 230 220 145 163 179 184 189 192 186 191 190 189 189 188 184 186 188 185 185 188 188 182 181 175 180 184 183 183 180 178 176 181 194 201 190 188 197 294 315 307 309
87 155 248 258 208 216 165 249 254 170 161 183 192 193 196 200 200 200 193 191 187 183 183 187 187 188 191 191 190 186 183 183 188 183 183 190 189 183 178 186 201 190 176 178 198 243 298 298 305
176 207 217 250 218 184 186 238 267 168 179 195 199 200 203 208 213 208 198 194 189 187 186 186 187 189 193 192 190 189 185 191 191 184 187 193 191 185 181 193 196 180 177 190 200 214 230 287 302
181 189 199 215 222 184 212 244 269 211 201 210 206 205 208 213 218 208 200 196 192 190 189 190 191 192 188 184 180 183 193 199 193 192 195 190 190 186 184 192 193 178 181 198 202 218 218 254 287
158 174 203 219 210 188 222 240 253 234 220 231 222 215 217 224 224 207 200 196 192 193 194 194 194 193 184 181 186 191 202 199 198 200 196 193 190 186 186 190 190 185 196 205 196 191 220 258 279
170 191 209 250 202 199 247 256 256 233 218 220 218 218 220 227 224 213 201 197 200 201 201 200 199 195 192 194 187 180 174 187 193 192 195 194 191 191 193 195 195 192 197 201 192 178 178 223 175
203 198 194 203 40 342 302 279 257 250 231 238 230 224 224 222 223 216 207 206 205 207 205 203 202 198 196 189 172 155 153 155 177 192 197 198 194 194 193 197 193 190 189 200 197 187 184 204 196
212 184 170 151 129 249 208 261 260 237 240 235 231 224 225 225 225 220 211 209 209 211 205 204 201 199 194 187 185 184 193 201 198 186 187 190 194 195 194 193 190 190 189 197 195 186 183 180 199
149 130 122 105 122 277 233 241 267 227 234 236 230 226 228 225 221 221 215 213 212 207 202 202 199 199 194 192 194 196 204 204 181 170 179 186 185 189 189 186 182 182 182 187 177 171 174 179 185
113 92 77 69 93 248 218 212 262 222 218 224 226 226 228 226 221 224 221 212 211 202 198 195 196 200 196 195 197 199 201 192 178 178 180 179 175 180 181 175 174 172 171 172 167 163 159 160 159
147 137 144 173 207 242 182 208 247 237 220 214 220 224 225 223 219 220 216 209 206 198 197 195 196 200 197 198 201 201 199 193 192 185 182 176 176 179 181 169 162 156 156 148 142 139 136 138 137
177 170 173 181 202 241 188 227 248 239 241 245 252 249 244 233 223 221 216 209 205 200 196 195 198 201 197 199 202 200 195 193 193 185 177 180 179 174 162 154 144 139 138 134 129 120 117 114 118
161 191 170 129 127 218 233 260 292 252 253 252 252 251 244 236 227 223 216 207 201 196 195 195 197 198 197 198 196 193 190 187 181 173 169 162 154 146 144 140 133 131 127 124 120 115 115 111 105
162 151 147 175 185 231 258 243 236 224 228 233 235 237 241 233 223 216 206 200 194 188 184 185 192 195 192 191 190 187 185 182 171 162 161 155 148 143 140 134 132 127 121 119 115 114 115 109 101
154 165 171 175 200 190 237 257 222 208 207 217 227 231 234 225 214 206 197 185 173 164 168 174 181 183 184 185 180 174 172 164 159 159 157 150 145 143 142 140 134 128 124 122 118 115 116 113 104
163 171 167 180 206 204 221 265 262 232 247 246 251 256 245 221 206 191 180 171 171 172 171 173 175 178 179 173 167 166 157 153 154 151 147 144 140 138 138 136 129 126 124 123 124 123 120 118 113